Princeton, British Columbia

5:13 AM PST on February 26, 2017 (GMT -0800)
Princeton

Weather History for CWPR - November, 2012

Change the Weather History Date:

Sunday, November 25, 2012

  Actual Average (CYDC) Record (CYDC)
Temperature  
Mean Temperature 32 °F -  
Max Temperature 42 °F 32 °F 44 °F (2004)
Min Temperature 21 °F 23 °F -8 °F (2012)
Degree Days  
Heating Degree Days 33    
Moisture  
Dew Point 24 °F    
Average Humidity 83    
Maximum Humidity 96    
Minimum Humidity 50    
Precipitation  
Precipitation 0.00 in - - ()
Sea Level Pressure  
Sea Level Pressure 30.33 in    
Wind  
Wind Speed 0 mph ()    
Max Wind Speed 6 mph    
Max Gust Speed -    
Averages and records for this station are not official NWS values.
T = Trace of Precipitation, MM = Missing Value Source: Averaged Metar Reports

Daily Weather History Graph

Daily Weather History Graph

Search for Another Location

Airport or City:

Trip Planner

Search our weather history database for the weather conditions in past years. The results will help you decide how hot, cold, wet, or windy it might be!

Date:

Astronomy

Nov. 25, 2012 Rise Set
Actual Time 7:29 AM PST 4:08 PM PST
Civil Twilight 6:52 AM PST 4:45 PM PST
Nautical Twilight 6:13 AM PST 5:24 PM PST
Astronomical Twilight 5:34 AM PST 6:03 PM PST
Moon 2:37 PM PST (11/25) 4:37 AM PST (11/25)
Length of Visible Light 9h 52m
Length of Day
8h 39m
Waxing Gibbous, 93% of the Moon is Illuminated
Nov 25
Waxing Gibbous
Nov 28
Full
Dec 6
Last Quarter
Dec 13
New
Dec 19
First Quarter

Hourly Weather History & Observations

Time (PST) Temp. Windchill Dew Point Humidity Pressure Visibility Wind Dir Wind Speed Gust Speed Precip Events Conditions
12:00 AM 28.2 °F - 27.3 °F 96% 30.23 in - Calm Calm - N/A   Unknown
1:00 AM 28.2 °F - 27.0 °F 95% 30.22 in - Calm Calm - N/A   Unknown
2:00 AM 26.2 °F - 24.4 °F 93% 30.25 in - Calm Calm - N/A   Unknown
3:00 AM 25.9 °F - 24.1 °F 93% 30.26 in - Calm Calm - N/A   Unknown
4:00 AM 26 °F - 24 °F 91% 30.27 in - Calm Calm - -  
4:00 AM 26.1 °F - 24.4 °F 94% 30.27 in - Calm Calm - N/A   Unknown
5:00 AM 26.4 °F - 25.0 °F 94% 30.29 in - Calm Calm - N/A   Unknown
6:00 AM 25.3 °F - 23.9 °F 94% 30.29 in - Calm Calm - N/A   Unknown
7:00 AM 23.5 °F - 22.1 °F 94% 30.32 in - Calm Calm - N/A   Unknown
8:00 AM 23.4 °F - 21.7 °F 94% 30.34 in - Calm Calm - N/A   Unknown
9:00 AM 27.3 °F - 25.0 °F 91% 30.35 in - Calm Calm - N/A   Unknown
10:00 AM 30 °F - 26 °F 81% 30.36 in - Calm Calm - -  
10:00 AM 30.4 °F - 26.4 °F 85% 30.36 in - Calm Calm - N/A   Unknown
11:00 AM 34.5 °F - 27.5 °F 76% 30.35 in - Calm Calm - N/A   Unknown
12:00 PM 35.8 °F - 25.5 °F 66% 30.34 in - Calm Calm - N/A   Unknown
1:00 PM 39.2 °F - 26.6 °F 61% 30.32 in - Calm Calm - N/A   Unknown
2:00 PM 41.2 °F - 24.3 °F 51% 30.32 in - Calm Calm - N/A   Unknown
3:00 PM 41.9 °F - 24.4 °F 50% 30.32 in - Calm Calm - N/A   Unknown
4:00 PM 33 °F - 25 °F 64% 30.34 in - NW 5.8 mph - -  
4:00 PM 31.3 °F 25.6 °F 25.3 °F 79% 30.34 in - NW 5.8 mph - N/A   Unknown
5:00 PM 31.8 °F - 25.0 °F 76% 30.35 in - West 1.2 mph - N/A   Unknown
6:00 PM 27.9 °F - 23.5 °F 84% 30.37 in - Calm Calm - N/A   Unknown
7:00 PM 26.2 °F - 23.9 °F 91% 30.39 in - Calm Calm - N/A   Unknown
8:00 PM 24.8 °F - 22.3 °F 90% 30.39 in - ESE 1.2 mph - N/A   Unknown
9:00 PM 24.8 °F - 21.6 °F 87% 30.39 in - Calm Calm - N/A   Unknown
10:00 PM 24 °F - 21 °F 85% 30.40 in - Calm Calm - -  
10:00 PM 23.7 °F - 21.4 °F 91% 30.40 in - Calm Calm - N/A   Unknown
11:00 PM 21.9 °F - 19.6 °F 91% 30.39 in - Calm Calm - N/A   Unknown